User: anonymous   Login
Location: Caltech
(34.1382°N, 118.1253°W)
Time: 05:35:18
(UTC-07:00)
Language:

Iridium 62 - Orbit

View from above orbital plane
View from above orbital plane
View from above satellite
View from above satellite

Ground track
Ground track

The orbit data is extracted from the following two-line orbital elements,

1 25285U 98021A   16150.55659776  .00000180  00000-0  57101-4 0  9992
2 25285  86.3975  24.2930 0002142  89.1939 270.9502 14.34216334950033
Epoch (UTC): 29 May 2016 13:21:30
Eccentricity: 0.0002142
inclination: 86.3975°
perigee height: 776 km
apogee height: 779 km
right ascension of ascending node: 24.2930°
argument of perigee: 89.1939°
revolutions per day: 14.34216334
mean anomaly at epoch: 270.9502°
orbit number at epoch: 95003

The dashed part of the orbit path shows where the satellite is in the earth's shadow,  

DLR